Regional Weather Roundup
Issued by NWS

Home | Current Version | Previous Version | Graphics & Text | Print | Product List | Glossary Off
Versions: 1 2 3 4 5 6 7 8 9 10 11 12 13 14 15 16 17 18 19 20 21 22 23 24 25 26 27 28 29 30 31 32 33 34 35 36 37 38 39 40 41 42 43 44 45 46 47 48 49 50

000
ASUS43 KFSD 251810
RWRSD

WEATHER ROUNDUP FOR SOUTH DAKOTA
NATIONAL WEATHER SERVICE SIOUX FALLS SD
100 PM CDT WED APR 25 2018

NOTE: "FAIR" INDICATES FEW OR NO CLOUDS BELOW 12,000 FEET WITH NO
SIGNIFICANT WEATHER AND/OR OBSTRUCTIONS TO VISIBILITY.


SDZ001>005-009-010-012>017-251900-
NORTHWEST AND NORTH CENTRAL SOUTH DAKOTA

CITY           SKY/WX    TMP DP  RH WIND       PRES   REMARKS
BUFFALO          N/A     62  25  24 SW17      29.97F
FAITH            N/A     58  30  34 S21       30.07F
MOBRIDGE       MOSUNNY   59  34  39 S18       30.08F
$$

SDZ012>016-024>037-041>051-057-063-072>074-251900-
SOUTHWEST AND SOUTH CENTRAL SOUTH DAKOTA

CITY           SKY/WX    TMP DP  RH WIND       PRES   REMARKS
RAPID CTY ARPT SUNNY     65  22  19 S12       30.06F
PIERRE         SUNNY     59  28  30 SW15G22   30.14F
CUSTER         SUNNY     55   8  15 SW9G18    30.14F
ELLSWORTH AFB  MOSUNNY   65  23  20 S15       30.05F
PHILIP         SUNNY     61  28  28 SW17G24   30.13F
PINE RIDGE     SUNNY     58  26  29 SW13G21   30.17F
SPEARFISH      FAIR      63  19  19 NW5G15    30.07F
WINNER         FAIR      57  27  31 W7        30.19F
$$

SDZ004>011-016>023-039-040-251900-
NORTHEAST SOUTH DAKOTA

CITY           SKY/WX    TMP DP  RH WIND       PRES   REMARKS
ABERDEEN       SUNNY     61  29  29 S13G24    30.14F
WATERTOWN      SUNNY     53  31  42 VRB7      30.16F
BROOKINGS      SUNNY     51  29  42 VRB7      30.19F
SISSETON         N/A     59  29  31 W6        30.14F
$$

SDZ017-020-022-023-036>040-048>070-251900-
SOUTHEAST SOUTH DAKOTA

CITY           SKY/WX    TMP DP  RH WIND       PRES   REMARKS
SIOUX FALLS    SUNNY     55  25  31 N3        30.19F
HURON          SUNNY     55  33  43 MISG      30.18F
CHAMBERLAIN    SUNNY     56  32  40 S6        30.19F
MITCHELL       SUNNY     54  33  45 NW3       30.21F
YANKTON        SUNNY     52  30  43 SW5       30.21F
$$

ABBREVIATIONS USED IN REMARKS
   TC - TEMPERATURE IN CELSIUS
  WCI - WIND CHILL INDEX
   HX - HEAT INDEX
  VSB - VISIBILITY




USA.gov is the U.S. government's official web portal to all federal, state and local government web resources and services.